Latest Coastal Weather Observations for Lady Elliot Island

IDQ60701

Issued at 6:45 am EST Wednesday 26 November 2014 (issued every 10 minutes, with the page automatically refreshed every 10 minutes)

About coastal observations | Map of coastal stations | Coastal observations for QLD | Marine services | Other Formats
Station Details ID: 039059 Name: LADY ELLIOT ISLAND Lat: -24.11 Lon: 152.72 Height: 3.6 m
Data from the previous 72 hours. | See also: Recent months at Lady Elliot Island
Date/Time
EST
Temp

°C
Wind Pressure Rain
since 9am
mm
Weather Cloud Vis
km
Sea
Height
m
Swell
Dir
 
Speed
knots
Gust
knots
hPa Trend Height
m
Period
s
Dir
26/06:30am 25.3 E 11 14 1015.6 - 0.0 - - - - - - -
26/06:00am 24.6 E 11 14 1015.3 - 0.0 - - - - - - -
26/05:30am 24.6 ENE 9 12 1015.1 - 0.0 - - - - - - -
26/05:00am 24.3 E 9 13 1014.9 - 0.0 - - - - - - -
26/04:30am 24.4 E 10 12 1014.8 - 0.0 - - - - - - -
26/04:00am 24.5 E 10 13 1014.5 - 0.0 - - - - - - -
26/03:30am 24.5 E 8 11 1014.4 - 0.0 - - - - - - -
26/03:00am 24.5 E 9 11 1014.2 - 0.0 - - - - - - -
26/02:30am 24.4 ENE 8 10 1014.1 - 0.0 - - - - - - -
26/02:00am 24.5 ENE 7 9 1014.2 - 0.0 - - - - - - -
26/01:30am 24.5 ENE 6 10 1014.3 - 0.0 - - - - - - -
26/01:00am 24.6 ENE 6 9 1014.4 - 0.0 - - - - - - -
26/12:30am 24.5 NE 5 8 1014.4 - 0.0 - - - - - - -
26/12:00am 24.8 NNE 7 11 1014.6 - 0.0 - - - - - - -
 
Date/Time
EST
Temp

°C
Wind Pressure Rain
since 9am
mm
Weather Cloud Vis
km
Sea
Height
m
Swell
Dir
 
Speed
knots
Gust
knots
hPa Trend Height
m
Period
s
Dir
25/11:30pm 24.7 NNE 7 11 1014.7 - 0.0 - - - - - - -
25/11:00pm 24.9 NNE 7 10 1014.9 - 0.0 - - - - - - -
25/10:30pm 24.8 NNE 6 11 1015.3 - 0.0 - - - - - - -
25/10:00pm 24.9 N 5 8 1015.7 - 0.0 - - - - - - -
25/09:30pm 24.8 N 6 9 1015.4 - 0.0 - - - - - - -
25/09:00pm 24.9 N 7 11 1015.1 - 0.0 - - - - - - -
25/08:30pm 24.9 N 6 11 1014.9 - 0.0 - - - - - - -
25/08:00pm 24.9 N 7 11 1014.5 - 0.0 - - - - - - -
25/07:30pm 25.0 NNE 7 9 1014.3 - 0.0 - - - - - - -
25/07:00pm 25.1 N 7 11 1013.9 - 0.0 - - - - - - -
25/06:30pm 25.3 NNE 7 12 1013.8 - 0.0 - - - - - - -
25/06:00pm 25.8 NNE 8 11 1013.4 - 0.0 - - - - - - -
25/05:30pm 26.5 NNE 7 13 1013.1 - 0.0 - - - - - - -
25/05:00pm 26.5 NNE 6 11 1013.0 - 0.0 - - - - - - -
25/04:30pm 27.7 NNE 6 10 1012.9 - 0.0 - - - - - - -
25/04:00pm 28.5 NE 6 9 1013.1 - 0.0 - - - - - - -
25/03:30pm 28.8 NE 7 10 1013.1 - 0.0 - - - - - - -
25/03:00pm 28.4 NE 7 10 1013.2 - 0.0 - - - - - - -
25/02:30pm 28.1 ENE 6 9 1013.5 - 0.0 - - - - - - -
25/02:00pm 28.2 ENE 5 8 1013.7 - 0.0 - - - - - - -
25/01:30pm 27.9 ENE 6 10 1013.9 - 0.0 - - - - - - -
25/01:00pm 28.1 NE 6 8 1014.1 - 0.0 - - - - - - -
25/12:30pm 29.2 NE 6 9 1014.4 - 0.0 - - - - - - -
25/12:00pm 29.6 NE 5 9 1014.7 - 0.0 - - - - - - -
25/11:30am 28.8 ENE 5 8 1015.1 - 0.0 - - - - - - -
25/11:00am 28.7 NE 5 8 1015.4 - 0.0 - - - - - - -
25/10:30am 28.6 ENE 5 8 1015.6 - 0.0 - - - - - - -
25/10:00am 29.1 ENE 5 6 1015.9 - 0.0 - - - - - - -
25/09:30am 28.2 ENE 5 6 1015.9 - 0.0 - - - - - - -
25/09:00am 28.3 ENE 6 8 1015.8 - 0.0 - - - - - - -
25/08:30am 27.9 NE 6 8 1015.9 - 0.0 - - - - - - -
25/08:00am 26.7 S 5 6 1015.9 - 0.0 - - - - - - -
25/07:30am 25.9 SSE 4 6 1015.9 - 0.0 - - - - - - -
25/07:00am 26.0 ESE 4 5 1015.8 - 0.0 - - - - - - -
25/06:30am 25.3 E 4 5 1015.5 - 0.0 - - - - - - -
25/06:00am 25.0 E 5 6 1015.1 - 0.0 - - - - - - -
25/05:30am 23.9 ENE 3 6 1014.9 - 0.0 - - - - - - -
25/05:00am 22.4 NNE 1 3 1014.6 - 0.0 - - - - - - -
25/04:30am 22.4 CALM 0 3 1014.3 - 0.0 - - - - - - -
25/04:00am 23.1 N 2 4 1014.3 - 0.0 - - - - - - -
25/03:30am 23.3 N 2 5 1014.3 - 0.0 - - - - - - -
25/03:00am 23.5 N 2 4 1014.1 - 0.0 - - - - - - -
25/02:30am 23.6 N 3 4 1014.2 - 0.0 - - - - - - -
25/02:00am 23.9 N 4 5 1014.3 - 0.0 - - - - - - -
25/01:30am 23.7 N 3 5 1014.5 - 0.0 - - - - - - -
25/01:00am 23.6 N 3 5 1014.8 - 0.0 - - - - - - -
25/12:30am 23.5 N 3 5 1015.3 - 0.0 - - - - - - -
25/12:00am 23.4 NNE 1 4 1015.5 - 0.0 - - - - - - -
 
Date/Time
EST
Temp

°C
Wind Pressure Rain
since 9am
mm
Weather Cloud Vis
km
Sea
Height
m
Swell
Dir
 
Speed
knots
Gust
knots
hPa Trend Height
m
Period
s
Dir
24/11:30pm 23.8 NNW 2 4 1015.7 - 0.0 - - - - - - -
24/11:00pm 23.8 NE 4 6 1015.9 - 0.0 - - - - - - -
24/10:30pm 23.8 NNE 4 6 1015.9 - 0.0 - - - - - - -
24/10:00pm 24.1 NE 4 8 1016.0 - 0.0 - - - - - - -
24/09:30pm 23.9 N 4 8 1016.0 - 0.0 - - - - - - -
24/09:00pm 24.1 NNE 4 8 1015.8 - 0.0 - - - - - - -
24/08:30pm 24.1 ENE 4 9 1015.6 - 0.0 - - - - - - -
24/08:00pm 24.3 NNE 5 8 1015.5 - 0.0 - - - - - - -
24/07:30pm 24.3 NE 5 9 1015.1 - 0.0 - - - - - - -
24/07:00pm 24.6 NE 6 10 1014.7 - 0.0 - - - - - - -
24/06:30pm 24.7 NE 6 10 1014.6 - 0.0 - - - - - - -
24/06:00pm 25.3 NE 6 10 1014.5 - 0.0 - - - - - - -
24/05:30pm 26.3 NE 6 9 1014.1 - 0.0 - - - - - - -
24/05:00pm 27.3 NE 6 9 1014.0 - 0.0 - - - - - - -
24/04:30pm 27.1 NE 7 10 1013.9 - 0.0 - - - - - - -
24/04:00pm 27.9 NE 6 13 1013.9 - 0.0 - - - - - - -
24/03:30pm 27.9 NE 6 10 1014.2 - 0.0 - - - - - - -
24/03:00pm 28.4 NE 7 11 1014.4 - 0.0 - - - - - - -
24/02:30pm 28.3 NE 7 11 1014.6 - 0.0 - - - - - - -
24/02:00pm 28.9 NE 7 11 1015.0 - 0.0 - - - - - - -
24/01:30pm 28.4 NE 7 11 1015.3 - 0.0 - - - - - - -
24/01:00pm 28.4 NE 7 11 1015.6 - 0.0 - - - - - - -
24/12:30pm 28.5 ENE 7 11 1016.0 - 0.0 - - - - - - -
24/12:00pm 28.2 ENE 7 11 1016.3 - 0.0 - - - - - - -
24/11:30am 28.3 ENE 7 11 1016.6 - 0.0 - - - - - - -
24/11:00am 28.2 NE 8 11 1017.0 - 0.0 - - - - - - -
24/10:30am 28.0 NE 8 11 1017.3 - 0.0 - - - - - - -
24/10:00am 26.9 E 7 8 1017.5 - 0.0 - - - - - - -
24/09:30am 28.4 ENE 7 10 1017.7 - 0.0 - - - - - - -
24/09:00am 28.1 ENE 7 11 1017.8 - 0.0 - - - - - - -
24/08:30am 27.9 ENE 7 11 1017.7 - 0.0 - - - - - - -
24/08:00am 27.6 ENE 7 11 1017.7 - 0.0 - - - - - - -
24/07:30am 26.8 ENE 7 11 1017.4 - 0.0 - - - - - - -
24/07:00am 26.8 ENE 6 11 1017.1 - 0.0 - - - - - - -
24/06:30am 26.5 ENE 6 9 1016.9 - 0.0 - - - - - - -
24/06:00am 25.4 NE 6 9 1016.6 - 0.0 - - - - - - -
24/05:30am 24.3 NNE 5 8 1016.5 - 0.0 - - - - - - -
24/05:00am 24.0 NE 5 9 1016.3 - 0.0 - - - - - - -
24/04:30am 24.2 NE 7 11 1016.1 - 0.0 - - - - - - -
24/04:00am 24.1 NE 8 13 1016.1 - 0.0 - - - - - - -
24/03:30am 24.1 ENE 8 11 1016.0 - 0.0 - - - - - - -
24/03:00am 24.1 ENE 8 11 1015.9 - 0.0 - - - - - - -
24/02:30am 24.1 ENE 7 11 1015.9 - 0.0 - - - - - - -
24/02:00am 24.0 NE 6 11 1015.9 - 0.0 - - - - - - -
24/01:30am 24.1 NE 4 8 1016.0 - 0.0 - - - - - - -
24/01:00am 24.2 ENE 5 9 1016.2 - 0.0 - - - - - - -
24/12:30am 24.3 N 5 8 1016.3 - 0.0 - - - - - - -
24/12:00am 24.3 N 4 7 1016.6 - 0.0 - - - - - - -
 
Date/Time
EST
Temp

°C
Wind Pressure Rain
since 9am
mm
Weather Cloud Vis
km
Sea
Height
m
Swell
Dir
 
Speed
knots
Gust
knots
hPa Trend Height
m
Period
s
Dir
23/11:30pm 24.2 NE 4 6 1016.9 - 0.0 - - - - - - -
23/11:00pm 24.3 NE 6 8 1017.3 - 0.0 - - - - - - -
23/10:30pm 24.5 ENE 5 7 1017.2 - 0.0 - - - - - - -
23/10:00pm 24.5 NE 4 6 1017.2 - 0.0 - - - - - - -
23/09:30pm 24.3 NE 5 8 1016.9 - 0.0 - - - - - - -
23/09:00pm 24.3 NE 5 8 1016.7 - 0.0 - - - - - - -
23/08:30pm 24.2 NE 5 8 1016.4 - 0.0 - - - - - - -
23/08:00pm 24.2 NE 5 8 1016.1 - 0.0 - - - - - - -
23/07:30pm 24.3 NE 6 9 1015.9 - 0.0 - - - - - - -
23/07:00pm 24.6 NE 6 9 1015.7 - 0.0 - - - - - - -
23/06:30pm 25.2 NE 6 9 1015.4 - 0.0 - - - - - - -
23/06:00pm 25.5 E 7 9 1015.3 - 0.0 - - - - - - -
23/05:30pm 25.9 E 8 11 1015.1 - 0.0 - - - - - - -
23/05:00pm 26.4 E 8 11 1015.2 - 0.0 - - - - - - -
23/04:30pm 26.5 E 8 11 1015.3 - 0.0 - - - - - - -
23/04:00pm 27.0 E 7 10 1015.4 - 0.0 - - - - - - -
23/03:30pm 27.5 E 7 8 1015.5 - 0.0 - - - - - - -
23/03:00pm 27.5 E 7 9 1015.6 - 0.0 - - - - - - -
23/02:30pm 27.7 E 7 9 1015.9 - 0.0 - - - - - - -
23/02:00pm 27.5 E 8 10 1016.2 - 0.0 - - - - - - -
23/01:30pm 27.4 E 7 9 1016.5 - 0.0 - - - - - - -
23/01:00pm 27.9 E 7 9 1016.8 - 0.0 - - - - - - -
23/12:30pm 28.2 E 6 8 1017.0 - 0.0 - - - - - - -
23/12:00pm 27.2 E 6 7 1017.4 - 0.0 - - - - - - -
23/11:30am 27.8 E 6 7 1017.6 - 0.0 - - - - - - -
23/11:00am 27.5 E 5 6 1017.9 - 0.0 - - - - - - -
23/10:30am 28.3 ENE 6 7 1018.1 - 0.0 - - - - - - -
23/10:00am 27.3 E 5 6 1018.4 - 0.0 - - - - - - -
23/09:30am 27.3 E 5 6 1018.4 - 0.0 - - - - - - -
23/09:00am 27.2 ENE 4 6 1018.3 - 0.0 - - - - - - -
23/08:30am 27.6 ENE 5 6 1018.1 - 0.0 - - - - - - -
23/08:00am 27.1 ENE 5 7 1017.8 - 0.0 - - - - - - -
23/07:30am 27.1 NE 4 7 1017.6 - 0.0 - - - - - - -
23/07:00am 26.6 NNE 5 8 1017.3 - 0.0 - - - - - - -

Other Formats:

Comma delimited format used in spreadsheet applications
http://www.bom.gov.au/fwo/IDQ60701/IDQ60701.94388.axf

JavaScript Object Notation format (JSON) in row-major order
http://www.bom.gov.au/fwo/IDQ60701/IDQ60701.94388.json